Time,TemperatureF,DewpointF,PressureIn,WindDirection,WindDirectionDegrees,WindSpeedMPH,WindSpeedGustMPH,Humidity,HourlyPrecipIn,Conditions,Clouds,dailyrainin,SoftwareType,DateUTC
2013-03-27 00:00:00,34.0,28.1,30.08,NNW,341,1.9,2.5,79,0.00,,,0.00,WUHU216HW,2013-03-27 04:00:00,
2013-03-27 00:01:00,34.0,28.1,30.08,NW,316,1.9,2.5,79,0.00,,,0.00,WUHU216HW,2013-03-27 04:01:00,
2013-03-27 00:02:00,34.0,28.1,30.08,NW,307,1.9,2.5,79,0.00,,,0.00,WUHU216HW,2013-03-27 04:02:00,
2013-03-27 00:06:00,34.0,28.1,30.08,North,354,1.6,2.5,79,0.00,,,0.00,WUHU216HW,2013-03-27 04:06:00,
2013-03-27 00:11:00,34.0,27.8,30.08,WNW,302,3.5,4.7,78,0.00,,,0.00,WUHU216HW,2013-03-27 04:11:00,
2013-03-27 00:16:00,34.0,27.8,30.08,North,0,1.1,1.8,78,0.00,,,0.00,WUHU216HW,2013-03-27 04:16:00,
2013-03-27 00:21:00,33.8,27.6,30.08,NNW,341,1.1,1.3,78,0.00,,,0.00,WUHU216HW,2013-03-27 04:21:00,
2013-03-27 00:26:00,33.7,27.5,30.08,NNW,331,0.9,1.1,78,0.00,,,0.00,WUHU216HW,2013-03-27 04:26:00,
2013-03-27 00:31:00,33.7,27.5,30.08,NNW,331,1.1,1.6,78,0.00,,,0.00,WUHU216HW,2013-03-27 04:31:00,
2013-03-27 00:36:00,33.5,27.3,30.08,NNW,330,2.4,3.4,78,0.00,,,0.00,WUHU216HW,2013-03-27 04:36:00,
2013-03-27 00:41:00,33.5,27.3,30.08,NW,319,1.1,1.6,78,0.00,,,0.00,WUHU216HW,2013-03-27 04:41:00,
2013-03-27 00:47:00,33.5,27.3,30.08,WNW,291,3.2,5.4,78,0.00,,,0.00,WUHU216HW,2013-03-27 04:47:00,
2013-03-27 00:52:00,33.1,27.0,30.08,NNW,340,1.7,2.0,78,0.00,,,0.00,WUHU216HW,2013-03-27 04:52:00,
2013-03-27 00:57:00,32.9,27.1,30.08,NNW,345,0.7,1.6,79,0.00,,,0.00,WUHU216HW,2013-03-27 04:57:00,
2013-03-27 01:02:00,32.8,27.0,30.08,NNW,338,0.9,1.1,79,0.00,,,0.00,WUHU216HW,2013-03-27 05:02:00,
2013-03-27 01:07:00,32.6,26.8,30.08,North,352,1.0,2.7,79,0.00,,,0.00,WUHU216HW,2013-03-27 05:07:00,
2013-03-27 01:12:00,32.4,26.6,30.08,NW,320,1.8,2.2,79,0.00,,,0.00,WUHU216HW,2013-03-27 05:12:00,
2013-03-27 01:17:00,32.2,26.5,30.08,NNW,328,1.4,2.5,79,0.00,,,0.00,WUHU216HW,2013-03-27 05:17:00,
2013-03-27 01:22:00,32.2,26.8,30.08,NNW,331,1.0,1.3,80,0.00,,,0.00,WUHU216HW,2013-03-27 05:22:00,
2013-03-27 01:27:00,32.0,26.0,30.08,NW,324,1.3,1.8,78,0.00,,,0.00,WUHU216HW,2013-03-27 05:27:00,
2013-03-27 01:32:00,31.7,25.9,30.08,NW,312,1.2,1.6,79,0.00,,,0.00,WUHU216HW,2013-03-27 05:32:00,
2013-03-27 01:37:00,31.5,25.7,30.08,NNW,327,1.6,2.2,79,0.00,,,0.00,WUHU216HW,2013-03-27 05:37:00,
2013-03-27 01:42:00,31.3,25.6,30.08,NNW,327,2.6,3.6,79,0.00,,,0.00,WUHU216HW,2013-03-27 05:42:00,
2013-03-27 01:48:00,31.3,25.6,30.08,NNW,332,1.2,1.8,79,0.00,,,0.00,WUHU216HW,2013-03-27 05:48:00,
2013-03-27 01:53:00,31.3,25.9,30.08,NW,306,2.1,2.7,80,0.00,,,0.00,WUHU216HW,2013-03-27 05:53:00,
2013-03-27 01:58:00,31.3,26.2,30.09,NNW,335,1.6,1.8,81,0.00,,,0.00,WUHU216HW,2013-03-27 05:58:00,
2013-03-27 02:03:00,31.3,26.2,30.09,NNW,333,1.3,2.0,81,0.00,,,0.00,WUHU216HW,2013-03-27 06:03:00,
2013-03-27 02:09:00,31.3,26.2,30.09,NW,319,3.2,4.0,81,0.00,,,0.00,WUHU216HW,2013-03-27 06:09:00,
2013-03-27 02:14:00,31.1,26.0,30.09,North,359,1.0,1.8,81,0.00,,,0.00,WUHU216HW,2013-03-27 06:14:00,
2013-03-27 02:19:00,31.0,25.8,30.09,North,349,1.2,1.8,81,0.00,,,0.00,WUHU216HW,2013-03-27 06:19:00,
2013-03-27 02:24:00,31.0,25.8,30.09,NNW,335,1.2,2.0,81,0.00,,,0.00,WUHU216HW,2013-03-27 06:24:00,
2013-03-27 02:29:00,30.8,25.7,30.09,WNW,296,1.1,1.8,81,0.00,,,0.00,WUHU216HW,2013-03-27 06:29:00,
2013-03-27 02:34:00,30.8,25.4,30.09,WNW,293,1.3,2.0,80,0.00,,,0.00,WUHU216HW,2013-03-27 06:34:00,
2013-03-27 02:39:00,30.6,25.2,30.09,NW,317,1.0,1.8,80,0.00,,,0.00,WUHU216HW,2013-03-27 06:39:00,
2013-03-27 02:44:00,30.6,25.2,30.09,NNW,339,0.4,0.9,80,0.00,,,0.00,WUHU216HW,2013-03-27 06:44:00,
2013-03-27 02:49:00,30.4,25.0,30.09,NW,312,1.4,2.2,80,0.00,,,0.00,WUHU216HW,2013-03-27 06:49:00,
2013-03-27 02:54:00,30.2,24.8,30.09,WNW,299,1.3,1.6,80,0.00,,,0.00,WUHU216HW,2013-03-27 06:54:00,
2013-03-27 02:59:00,30.1,24.7,30.09,NW,318,2.0,2.5,80,0.00,,,0.00,WUHU216HW,2013-03-27 06:59:00,
2013-03-27 03:04:00,30.1,24.9,30.09,NW,313,2.7,3.1,81,0.00,,,0.00,WUHU216HW,2013-03-27 07:04:00,
2013-03-27 03:09:00,30.1,24.9,30.09,NNW,333,1.1,1.8,81,0.00,,,0.00,WUHU216HW,2013-03-27 07:09:00,
2013-03-27 03:14:00,30.2,25.1,30.09,NW,304,1.2,2.0,81,0.00,,,0.00,WUHU216HW,2013-03-27 07:14:00,
2013-03-27 03:19:00,29.9,24.8,30.09,WNW,298,2.5,3.1,81,0.00,,,0.00,WUHU216HW,2013-03-27 07:19:00,
2013-03-27 03:25:00,29.9,24.8,30.09,NW,308,2.0,2.9,81,0.00,,,0.00,WUHU216HW,2013-03-27 07:25:00,
2013-03-27 03:30:00,29.9,24.8,30.09,WNW,301,2.0,2.2,81,0.00,,,0.00,WUHU216HW,2013-03-27 07:30:00,
2013-03-27 03:35:00,29.7,24.6,30.09,WNW,301,2.6,4.0,81,0.00,,,0.00,WUHU216HW,2013-03-27 07:35:00,
2013-03-27 03:40:00,29.5,24.4,30.09,WNW,291,1.4,2.5,81,0.00,,,0.00,WUHU216HW,2013-03-27 07:40:00,
2013-03-27 03:46:00,29.7,24.6,30.09,WNW,288,2.8,4.3,81,0.00,,,0.00,WUHU216HW,2013-03-27 07:46:00,
2013-03-27 03:51:00,29.9,25.0,30.09,WNW,283,2.3,4.3,82,0.00,,,0.00,WUHU216HW,2013-03-27 07:51:00,
2013-03-27 03:57:00,29.7,24.6,30.08,WNW,284,1.9,2.5,81,0.00,,,0.00,WUHU216HW,2013-03-27 07:57:00,
2013-03-27 04:02:00,29.5,24.4,30.09,NW,313,3.2,4.7,81,0.00,,,0.00,WUHU216HW,2013-03-27 08:02:00,
2013-03-27 04:07:00,29.5,24.4,30.08,NW,322,0.8,1.1,81,0.00,,,0.00,WUHU216HW,2013-03-27 08:07:00,
2013-03-27 04:13:00,29.3,24.2,30.08,WNW,284,2.9,4.0,81,0.00,,,0.00,WUHU216HW,2013-03-27 08:13:00,
2013-03-27 04:18:00,29.3,24.5,30.08,WNW,292,1.2,1.8,82,0.00,,,0.00,WUHU216HW,2013-03-27 08:18:00,
2013-03-27 04:23:00,29.3,24.5,30.08,NW,315,2.2,4.0,82,0.00,,,0.00,WUHU216HW,2013-03-27 08:23:00,
2013-03-27 04:28:00,29.2,24.0,30.08,NW,322,1.1,1.8,81,0.00,,,0.00,WUHU216HW,2013-03-27 08:28:00,
2013-03-27 04:33:00,29.2,24.3,30.08,West,270,5.0,6.5,82,0.00,,,0.00,WUHU216HW,2013-03-27 08:33:00,
2013-03-27 04:38:00,29.3,24.9,30.08,NW,305,1.0,1.6,83,0.00,,,0.00,WUHU216HW,2013-03-27 08:38:00,
2013-03-27 04:43:00,29.3,24.5,30.08,NW,305,1.0,2.2,82,0.00,,,0.00,WUHU216HW,2013-03-27 08:43:00,
2013-03-27 04:48:00,29.2,24.3,30.08,West,276,2.8,4.9,82,0.00,,,0.00,WUHU216HW,2013-03-27 08:48:00,
2013-03-27 04:53:00,29.3,24.5,30.08,West,270,0.9,1.8,82,0.00,,,0.00,WUHU216HW,2013-03-27 08:53:00,
2013-03-27 04:58:00,29.2,24.3,30.08,NW,304,3.5,3.8,82,0.00,,,0.00,WUHU216HW,2013-03-27 08:58:00,
2013-03-27 05:03:00,29.2,24.3,30.08,WNW,284,1.4,2.9,82,0.00,,,0.00,WUHU216HW,2013-03-27 09:03:00,
2013-03-27 05:08:00,29.3,24.9,30.08,North,359,2.0,2.5,83,0.00,,,0.00,WUHU216HW,2013-03-27 09:08:00,
2013-03-27 05:13:00,29.3,24.9,30.08,West,275,2.9,4.9,83,0.00,,,0.00,WUHU216HW,2013-03-27 09:13:00,
2013-03-27 05:18:00,29.3,24.9,30.09,NNW,332,1.4,2.5,83,0.00,,,0.00,WUHU216HW,2013-03-27 09:18:00,
2013-03-27 05:23:00,29.3,24.9,30.08,NNW,341,1.9,2.7,83,0.00,,,0.00,WUHU216HW,2013-03-27 09:23:00,
2013-03-27 05:29:00,29.5,25.0,30.08,WNW,285,5.5,6.9,83,0.00,,,0.00,WUHU216HW,2013-03-27 09:29:00,
2013-03-27 05:34:00,29.7,25.2,30.08,WNW,293,1.7,2.5,83,0.00,,,0.00,WUHU216HW,2013-03-27 09:34:00,
2013-03-27 05:39:00,29.7,24.8,30.09,NW,311,4.8,6.3,82,0.00,,,0.00,WUHU216HW,2013-03-27 09:39:00,
2013-03-27 05:44:00,29.7,24.8,30.09,WNW,290,3.3,4.7,82,0.00,,,0.00,WUHU216HW,2013-03-27 09:44:00,
2013-03-27 05:49:00,29.5,24.7,30.09,West,263,2.8,4.0,82,0.00,,,0.00,WUHU216HW,2013-03-27 09:49:00,
2013-03-27 05:54:00,29.5,24.7,30.09,West,269,1.8,2.7,82,0.00,,,0.00,WUHU216HW,2013-03-27 09:54:00,
2013-03-27 06:00:00,29.5,24.7,30.09,WNW,299,3.5,6.7,82,0.00,,,0.00,WUHU216HW,2013-03-27 10:00:00,
2013-03-27 06:05:00,29.5,24.7,30.09,WNW,288,4.3,6.3,82,0.00,,,0.00,WUHU216HW,2013-03-27 10:05:00,
2013-03-27 06:10:00,29.5,24.7,30.09,West,280,3.6,4.7,82,0.00,,,0.00,WUHU216HW,2013-03-27 10:10:00,
2013-03-27 06:15:00,29.5,24.7,30.09,NW,307,1.9,2.7,82,0.00,,,0.00,WUHU216HW,2013-03-27 10:15:00,
2013-03-27 06:20:00,29.5,24.7,30.10,WNW,302,2.5,3.4,82,0.00,,,0.00,WUHU216HW,2013-03-27 10:20:00,
2013-03-27 06:25:00,29.5,24.7,30.09,West,274,3.2,4.7,82,0.00,,,0.00,WUHU216HW,2013-03-27 10:25:00,
2013-03-27 06:30:00,29.5,24.7,30.10,NW,306,3.4,4.7,82,0.00,,,0.00,WUHU216HW,2013-03-27 10:30:00,
2013-03-27 06:35:00,29.5,24.7,30.10,NNW,330,1.9,3.4,82,0.00,,,0.00,WUHU216HW,2013-03-27 10:35:00,
2013-03-27 06:40:00,29.5,24.7,30.10,WNW,285,3.4,4.7,82,0.00,,,0.00,WUHU216HW,2013-03-27 10:40:00,
2013-03-27 06:46:00,29.7,25.2,30.10,NW,309,4.2,5.4,83,0.00,,,0.00,WUHU216HW,2013-03-27 10:46:00,
2013-03-27 06:51:00,29.7,24.8,30.10,WNW,293,4.9,7.6,82,0.00,,,0.00,WUHU216HW,2013-03-27 10:51:00,
2013-03-27 06:56:00,29.7,24.8,30.10,WNW,296,3.3,4.5,82,0.00,,,0.00,WUHU216HW,2013-03-27 10:56:00,
2013-03-27 07:01:00,29.5,24.7,30.10,NW,311,2.3,2.5,82,0.00,,,0.00,WUHU216HW,2013-03-27 11:01:00,
2013-03-27 07:06:00,29.5,24.7,30.10,NW,305,2.0,2.5,82,0.00,,,0.00,WUHU216HW,2013-03-27 11:06:00,
2013-03-27 07:11:00,29.5,24.7,30.10,WNW,295,2.8,4.0,82,0.00,,,0.00,WUHU216HW,2013-03-27 11:11:00,
2013-03-27 07:17:00,29.5,24.7,30.10,North,357,1.7,2.0,82,0.00,,,0.00,WUHU216HW,2013-03-27 11:17:00,
2013-03-27 07:22:00,29.5,24.7,30.10,WNW,296,3.0,4.5,82,0.00,,,0.00,WUHU216HW,2013-03-27 11:22:00,
2013-03-27 07:27:00,29.3,24.5,30.10,WNW,299,5.1,6.9,82,0.00,,,0.00,WUHU216HW,2013-03-27 11:27:00,
2013-03-27 07:32:00,29.3,24.5,30.10,NNW,330,1.4,2.2,82,0.00,,,0.00,WUHU216HW,2013-03-27 11:32:00,
2013-03-27 07:37:00,29.3,24.5,30.10,West,278,1.2,1.6,82,0.00,,,0.00,WUHU216HW,2013-03-27 11:37:00,
2013-03-27 07:42:00,29.3,24.2,30.10,WNW,293,2.1,3.1,81,0.00,,,0.00,WUHU216HW,2013-03-27 11:42:00,
2013-03-27 07:47:00,29.5,24.4,30.11,NW,312,1.7,3.4,81,0.00,,,0.00,WUHU216HW,2013-03-27 11:47:00,
2013-03-27 07:52:00,29.9,24.8,30.11,NW,326,2.7,3.1,81,0.00,,,0.00,WUHU216HW,2013-03-27 11:52:00,
2013-03-27 07:57:00,29.9,24.5,30.11,NNW,343,4.1,5.8,80,0.00,,,0.00,WUHU216HW,2013-03-27 11:57:00,
2013-03-27 08:02:00,30.1,24.7,30.11,NW,312,3.5,4.3,80,0.00,,,0.00,WUHU216HW,2013-03-27 12:02:00,
2013-03-27 08:07:00,30.4,25.0,30.12,NW,315,4.2,5.4,80,0.00,,,0.00,WUHU216HW,2013-03-27 12:07:00,
2013-03-27 08:13:00,30.4,24.7,30.12,NW,324,3.1,4.3,79,0.00,,,0.00,WUHU216HW,2013-03-27 12:13:00,
2013-03-27 08:18:00,30.4,24.7,30.11,WNW,288,1.8,2.7,79,0.00,,,0.00,WUHU216HW,2013-03-27 12:18:00,
2013-03-27 08:23:00,30.6,24.8,30.12,NW,306,3.0,6.0,79,0.00,,,0.00,WUHU216HW,2013-03-27 12:23:00,
2013-03-27 08:28:00,30.8,25.0,30.12,West,269,5.2,7.8,79,0.00,,,0.00,WUHU216HW,2013-03-27 12:28:00,
2013-03-27 08:33:00,31.0,25.2,30.12,NW,322,5.3,7.4,79,0.00,,,0.00,WUHU216HW,2013-03-27 12:33:00,
2013-03-27 08:38:00,31.3,25.6,30.12,NNW,329,3.7,5.1,79,0.00,,,0.00,WUHU216HW,2013-03-27 12:38:00,
2013-03-27 08:44:00,31.5,25.7,30.12,WNW,302,3.3,4.5,79,0.00,,,0.00,WUHU216HW,2013-03-27 12:44:00,
2013-03-27 08:49:00,31.7,25.7,30.12,North,7,4.3,4.7,78,0.00,,,0.00,WUHU216HW,2013-03-27 12:49:00,
2013-03-27 08:54:00,32.0,26.3,30.12,West,281,2.0,2.2,79,0.00,,,0.00,WUHU216HW,2013-03-27 12:54:00,
2013-03-27 08:59:00,32.4,26.3,30.12,NNW,331,3.8,5.4,78,0.00,,,0.00,WUHU216HW,2013-03-27 12:59:00,
2013-03-27 09:04:00,32.8,26.6,30.12,NNW,333,4.3,6.3,78,0.00,,,0.00,WUHU216HW,2013-03-27 13:04:00,
2013-03-27 09:09:00,32.9,26.5,30.12,NNW,331,4.7,6.3,77,0.00,,,0.00,WUHU216HW,2013-03-27 13:09:00,
2013-03-27 09:14:00,33.1,26.3,30.12,North,352,3.4,4.7,76,0.00,,,0.00,WUHU216HW,2013-03-27 13:14:00,
2013-03-27 09:19:00,33.5,26.6,30.12,NNW,328,4.8,5.8,76,0.00,,,0.00,WUHU216HW,2013-03-27 13:19:00,
2013-03-27 09:24:00,33.7,26.8,30.12,NNW,339,3.9,4.5,76,0.00,,,0.00,WUHU216HW,2013-03-27 13:24:00,
2013-03-27 09:30:00,34.0,26.8,30.12,NNW,339,4.0,4.7,75,0.00,,,0.00,WUHU216HW,2013-03-27 13:30:00,
2013-03-27 09:35:00,34.4,26.8,30.12,NNW,328,5.2,7.6,74,0.00,,,0.00,WUHU216HW,2013-03-27 13:35:00,
2013-03-27 09:40:00,34.7,26.9,30.12,NNW,334,4.4,5.6,73,0.00,,,0.00,WUHU216HW,2013-03-27 13:40:00,
2013-03-27 09:45:00,35.1,27.3,30.12,NNW,328,3.1,4.7,73,0.00,,,0.00,WUHU216HW,2013-03-27 13:45:00,
2013-03-27 09:50:00,35.6,27.8,30.12,NW,310,6.0,7.2,73,0.00,,,0.00,WUHU216HW,2013-03-27 13:50:00,
2013-03-27 09:55:00,35.8,27.6,30.12,NNW,336,5.2,6.5,72,0.00,,,0.00,WUHU216HW,2013-03-27 13:55:00,
2013-03-27 10:00:00,36.4,27.9,30.12,NW,318,5.7,7.2,71,0.00,,,0.00,WUHU216HW,2013-03-27 14:00:00,
2013-03-27 10:06:00,36.5,28.1,30.12,West,270,8.0,10.5,71,0.00,,,0.00,WUHU216HW,2013-03-27 14:06:00,
2013-03-27 10:11:00,36.9,28.5,30.12,NNW,338,4.4,6.0,71,0.00,,,0.00,WUHU216HW,2013-03-27 14:11:00,
2013-03-27 10:16:00,37.1,27.9,30.12,NNW,342,5.1,6.9,69,0.00,,,0.00,WUHU216HW,2013-03-27 14:16:00,
2013-03-27 10:21:00,37.4,28.3,30.12,NW,321,5.4,6.0,69,0.00,,,0.00,WUHU216HW,2013-03-27 14:21:00,
2013-03-27 10:26:00,37.8,28.5,30.12,NW,321,4.6,6.3,69,0.00,,,0.00,WUHU216HW,2013-03-27 14:26:00,
2013-03-27 10:31:00,38.0,28.4,30.12,WNW,297,3.4,4.0,68,0.00,,,0.00,WUHU216HW,2013-03-27 14:31:00,
2013-03-27 10:36:00,38.7,29.3,30.12,WNW,286,6.0,9.2,69,0.00,,,0.00,WUHU216HW,2013-03-27 14:36:00,
2013-03-27 10:42:00,39.1,29.0,30.12,NW,310,5.2,6.3,67,0.00,,,0.00,WUHU216HW,2013-03-27 14:42:00,
2013-03-27 10:47:00,39.2,28.7,30.12,WNW,300,8.4,9.2,66,0.00,,,0.00,WUHU216HW,2013-03-27 14:47:00,
2013-03-27 10:52:00,39.2,28.4,30.12,WNW,293,5.3,8.1,65,0.00,,,0.00,WUHU216HW,2013-03-27 14:52:00,
2013-03-27 10:57:00,40.0,28.7,30.13,NNW,332,4.0,5.8,64,0.00,,,0.00,WUHU216HW,2013-03-27 14:57:00,
2013-03-27 11:02:00,39.8,28.2,30.13,NNW,344,4.9,6.7,63,0.00,,,0.00,WUHU216HW,2013-03-27 15:02:00,
2013-03-27 11:07:00,40.3,28.7,30.13,NW,319,6.2,8.5,63,0.00,,,0.00,WUHU216HW,2013-03-27 15:07:00,
2013-03-27 11:12:00,40.1,28.1,30.13,NNW,329,5.6,6.3,62,0.00,,,0.00,WUHU216HW,2013-03-27 15:12:00,
2013-03-27 11:18:00,40.7,28.6,30.12,NW,321,5.1,8.1,62,0.00,,,0.00,WUHU216HW,2013-03-27 15:18:00,
2013-03-27 11:23:00,40.9,28.8,30.13,NNW,333,4.5,4.7,62,0.00,,,0.00,WUHU216HW,2013-03-27 15:23:00,
2013-03-27 11:28:00,41.4,29.3,30.13,NW,304,5.3,7.8,62,0.00,,,0.00,WUHU216HW,2013-03-27 15:28:00,
2013-03-27 11:33:00,41.4,29.0,30.13,NNW,333,6.6,8.3,61,0.00,,,0.00,WUHU216HW,2013-03-27 15:33:00,
2013-03-27 11:38:00,41.6,28.3,30.13,NW,325,5.3,8.3,59,0.00,,,0.00,WUHU216HW,2013-03-27 15:38:00,
2013-03-27 11:44:00,41.9,28.2,30.13,NNW,331,6.9,8.7,58,0.00,,,0.00,WUHU216HW,2013-03-27 15:44:00,
2013-03-27 11:49:00,41.9,27.7,30.13,NNW,338,4.7,6.3,57,0.00,,,0.00,WUHU216HW,2013-03-27 15:49:00,
2013-03-27 11:54:00,42.5,28.3,30.13,NW,319,5.6,6.7,57,0.00,,,0.00,WUHU216HW,2013-03-27 15:54:00,
2013-03-27 11:59:00,42.7,28.0,30.12,NW,323,8.0,9.6,56,0.00,,,0.00,WUHU216HW,2013-03-27 15:59:00,
2013-03-27 12:04:00,42.3,26.7,30.13,NNW,346,6.4,7.6,54,0.00,,,0.00,WUHU216HW,2013-03-27 16:04:00,
2013-03-27 12:09:00,42.1,27.5,30.13,NNW,332,6.8,8.9,56,0.00,,,0.00,WUHU216HW,2013-03-27 16:09:00,
2013-03-27 12:14:00,42.8,28.2,30.13,NNW,327,4.9,6.9,56,0.00,,,0.00,WUHU216HW,2013-03-27 16:14:00,
2013-03-27 12:19:00,42.8,27.3,30.13,NNW,328,4.3,4.9,54,0.00,,,0.00,WUHU216HW,2013-03-27 16:19:00,
2013-03-27 12:24:00,43.0,27.5,30.13,NW,319,4.0,5.8,54,0.00,,,0.00,WUHU216HW,2013-03-27 16:24:00,
2013-03-27 12:30:00,43.2,27.6,30.13,NNW,334,4.6,4.9,54,0.00,,,0.00,WUHU216HW,2013-03-27 16:30:00,
2013-03-27 12:35:00,43.6,27.6,30.12,NW,305,5.1,5.6,53,0.00,,,0.00,WUHU216HW,2013-03-27 16:35:00,
2013-03-27 12:40:00,43.6,27.6,30.13,North,354,3.8,6.3,53,0.00,,,0.00,WUHU216HW,2013-03-27 16:40:00,
2013-03-27 12:45:00,43.2,26.7,30.12,NNW,343,4.7,5.8,52,0.00,,,0.00,WUHU216HW,2013-03-27 16:45:00,
2013-03-27 12:50:00,43.4,27.4,30.12,North,354,4.4,5.4,53,0.00,,,0.00,WUHU216HW,2013-03-27 16:50:00,
2013-03-27 12:55:00,44.8,28.3,30.12,NW,311,7.6,8.9,52,0.00,,,0.00,WUHU216HW,2013-03-27 16:55:00,
2013-03-27 13:00:00,45.5,28.4,30.12,NW,319,6.4,7.6,51,0.00,,,0.00,WUHU216HW,2013-03-27 17:00:00,
2013-03-27 13:05:00,46.1,29.3,30.12,WNW,291,5.3,11.4,52,0.00,,,0.00,WUHU216HW,2013-03-27 17:05:00,
2013-03-27 13:10:00,46.8,28.1,30.12,NNW,333,5.3,6.7,48,0.00,,,0.00,WUHU216HW,2013-03-27 17:10:00,
2013-03-27 13:16:00,46.3,28.1,30.12,NW,322,5.0,5.4,49,0.00,,,0.00,WUHU216HW,2013-03-27 17:16:00,
2013-03-27 13:21:00,46.4,28.3,30.12,West,281,7.2,11.2,49,0.00,,,0.00,WUHU216HW,2013-03-27 17:21:00,
2013-03-27 13:26:00,46.1,28.4,30.12,NW,323,6.6,8.7,50,0.00,,,0.00,WUHU216HW,2013-03-27 17:26:00,
2013-03-27 13:31:00,46.1,27.9,30.12,NW,315,7.8,9.8,49,0.00,,,0.00,WUHU216HW,2013-03-27 17:31:00,
2013-03-27 13:36:00,46.6,29.0,30.12,North,355,2.4,2.9,50,0.00,,,0.00,WUHU216HW,2013-03-27 17:36:00,
2013-03-27 13:41:00,47.5,29.3,30.12,NW,325,4.0,4.7,49,0.00,,,0.00,WUHU216HW,2013-03-27 17:41:00,
2013-03-27 13:46:00,46.4,26.6,30.12,NW,325,6.8,7.8,46,0.00,,,0.00,WUHU216HW,2013-03-27 17:46:00,
2013-03-27 13:51:00,45.2,26.0,30.11,NW,307,5.5,6.9,47,0.00,,,0.00,WUHU216HW,2013-03-27 17:51:00,
2013-03-27 13:57:00,45.5,27.5,30.12,West,262,7.2,10.3,49,0.00,,,0.00,WUHU216HW,2013-03-27 17:57:00,
2013-03-27 14:02:00,47.0,28.2,30.11,WNW,289,5.7,8.3,48,0.00,,,0.00,WUHU216HW,2013-03-27 18:02:00,
2013-03-27 14:07:00,47.7,26.7,30.11,NNW,331,4.4,5.6,44,0.00,,,0.00,WUHU216HW,2013-03-27 18:07:00,
2013-03-27 14:12:00,47.5,26.6,30.11,NW,309,8.4,10.1,44,0.00,,,0.00,WUHU216HW,2013-03-27 18:12:00,
2013-03-27 14:17:00,47.2,26.2,30.11,NW,316,5.1,8.1,44,0.00,,,0.00,WUHU216HW,2013-03-27 18:17:00,
2013-03-27 14:22:00,46.3,25.9,30.11,NW,319,5.5,8.7,45,0.00,,,0.00,WUHU216HW,2013-03-27 18:22:00,
2013-03-27 14:27:00,46.8,27.6,30.11,West,277,6.8,9.6,47,0.00,,,0.00,WUHU216HW,2013-03-27 18:27:00,
2013-03-27 14:32:00,46.6,26.3,30.11,NNW,348,3.3,5.4,45,0.00,,,0.00,WUHU216HW,2013-03-27 18:32:00,
2013-03-27 14:38:00,46.4,26.1,30.11,NNW,340,5.5,6.0,45,0.00,,,0.00,WUHU216HW,2013-03-27 18:38:00,
2013-03-27 14:43:00,46.4,27.7,30.11,NNW,332,5.7,7.2,48,0.00,,,0.00,WUHU216HW,2013-03-27 18:43:00,
2013-03-27 14:48:00,46.6,26.3,30.11,NNW,332,4.6,6.0,45,0.00,,,0.00,WUHU216HW,2013-03-27 18:48:00,
2013-03-27 14:53:00,46.3,26.5,30.11,NW,315,6.3,9.2,46,0.00,,,0.00,WUHU216HW,2013-03-27 18:53:00,
2013-03-27 14:58:00,46.8,27.0,30.10,NW,318,5.7,6.9,46,0.00,,,0.00,WUHU216HW,2013-03-27 18:58:00,
2013-03-27 15:03:00,47.2,27.3,30.11,NW,322,7.8,9.4,46,0.00,,,0.00,WUHU216HW,2013-03-27 19:03:00,
2013-03-27 15:08:00,47.9,27.9,30.10,West,274,3.7,5.6,46,0.00,,,0.00,WUHU216HW,2013-03-27 19:08:00,
2013-03-27 15:13:00,48.1,27.0,30.11,WNW,283,6.9,7.6,44,0.00,,,0.00,WUHU216HW,2013-03-27 19:13:00,
2013-03-27 15:18:00,47.9,26.8,30.10,WNW,297,5.8,6.9,44,0.00,,,0.00,WUHU216HW,2013-03-27 19:18:00,
2013-03-27 15:23:00,46.4,26.1,30.11,North,350,5.6,5.8,45,0.00,,,0.00,WUHU216HW,2013-03-27 19:23:00,
2013-03-27 15:28:00,47.5,28.2,30.10,WNW,302,5.7,7.6,47,0.00,,,0.00,WUHU216HW,2013-03-27 19:28:00,
2013-03-27 15:33:00,47.7,27.8,30.10,NNW,328,4.5,8.5,46,0.00,,,0.00,WUHU216HW,2013-03-27 19:33:00,
2013-03-27 15:38:00,47.9,27.9,30.11,North,351,4.1,7.2,46,0.00,,,0.00,WUHU216HW,2013-03-27 19:38:00,
2013-03-27 15:43:00,47.7,26.7,30.10,NNW,332,4.6,5.4,44,0.00,,,0.00,WUHU216HW,2013-03-27 19:43:00,
2013-03-27 15:49:00,46.3,26.5,30.10,NNW,333,2.5,4.3,46,0.00,,,0.00,WUHU216HW,2013-03-27 19:49:00,
2013-03-27 15:54:00,45.7,26.6,30.10,NNW,332,4.8,5.4,47,0.00,,,0.00,WUHU216HW,2013-03-27 19:54:00,
2013-03-27 15:59:00,45.9,26.7,30.10,NNW,328,6.1,6.7,47,0.00,,,0.00,WUHU216HW,2013-03-27 19:59:00,
2013-03-27 16:04:00,46.1,26.8,30.10,NNW,342,4.6,5.1,47,0.00,,,0.00,WUHU216HW,2013-03-27 20:04:00,
2013-03-27 16:09:00,46.3,27.0,30.10,WNW,303,6.3,9.4,47,0.00,,,0.00,WUHU216HW,2013-03-27 20:09:00,
2013-03-27 16:14:00,46.4,27.7,30.10,WNW,295,6.4,9.8,48,0.00,,,0.00,WUHU216HW,2013-03-27 20:14:00,
2013-03-27 16:19:00,47.7,28.4,30.10,West,260,8.8,12.8,47,0.00,,,0.00,WUHU216HW,2013-03-27 20:19:00,
2013-03-27 16:24:00,47.9,28.4,30.10,West,277,5.7,6.3,47,0.00,,,0.00,WUHU216HW,2013-03-27 20:24:00,
2013-03-27 16:29:00,48.2,27.7,30.09,WNW,284,6.5,8.5,45,0.00,,,0.00,WUHU216HW,2013-03-27 20:29:00,
2013-03-27 16:34:00,48.2,28.3,30.10,WNW,301,8.5,9.2,46,0.00,,,0.00,WUHU216HW,2013-03-27 20:34:00,
2013-03-27 16:39:00,48.6,27.6,30.10,NNW,333,3.8,4.7,44,0.00,,,0.00,WUHU216HW,2013-03-27 20:39:00,
2013-03-27 16:44:00,47.7,26.7,30.10,WNW,300,5.4,7.8,44,0.00,,,0.00,WUHU216HW,2013-03-27 20:44:00,
2013-03-27 16:50:00,47.0,26.6,30.10,NNW,340,2.0,3.4,45,0.00,,,0.00,WUHU216HW,2013-03-27 20:50:00,
2013-03-27 16:55:00,46.8,27.0,30.10,West,268,8.9,13.2,46,0.00,,,0.00,WUHU216HW,2013-03-27 20:55:00,
2013-03-27 17:00:00,46.6,26.8,30.10,West,278,7.4,8.5,46,0.00,,,0.00,WUHU216HW,2013-03-27 21:00:00,
2013-03-27 17:05:00,46.4,27.2,30.10,WNW,289,4.6,5.6,47,0.00,,,0.00,WUHU216HW,2013-03-27 21:05:00,
2013-03-27 17:10:00,46.1,26.8,30.10,West,274,3.2,4.3,47,0.00,,,0.00,WUHU216HW,2013-03-27 21:10:00,
2013-03-27 17:15:00,45.9,26.7,30.10,West,275,4.4,5.6,47,0.00,,,0.00,WUHU216HW,2013-03-27 21:15:00,
2013-03-27 17:20:00,46.1,27.9,30.10,NNW,332,3.1,4.7,49,0.00,,,0.00,WUHU216HW,2013-03-27 21:20:00,
2013-03-27 17:25:00,46.1,27.4,30.10,WNW,291,6.3,7.6,48,0.00,,,0.00,WUHU216HW,2013-03-27 21:25:00,
2013-03-27 17:30:00,45.7,26.6,30.10,NNW,327,6.1,7.2,47,0.00,,,0.00,WUHU216HW,2013-03-27 21:30:00,
2013-03-27 17:36:00,45.4,26.7,30.10,NNW,332,7.6,9.2,48,0.00,,,0.00,WUHU216HW,2013-03-27 21:36:00,
2013-03-27 17:41:00,45.0,26.5,30.10,NW,322,3.3,4.0,48,0.00,,,0.00,WUHU216HW,2013-03-27 21:41:00,
2013-03-27 17:46:00,44.8,26.3,30.10,NW,319,5.9,6.7,48,0.00,,,0.00,WUHU216HW,2013-03-27 21:46:00,
2013-03-27 17:51:00,44.8,26.8,30.11,WNW,284,4.6,5.4,49,0.00,,,0.00,WUHU216HW,2013-03-27 21:51:00,
2013-03-27 17:56:00,44.8,26.3,30.11,NW,316,5.2,5.4,48,0.00,,,0.00,WUHU216HW,2013-03-27 21:56:00,
2013-03-27 18:01:00,44.6,26.6,30.11,NW,318,7.2,8.1,49,0.00,,,0.00,WUHU216HW,2013-03-27 22:01:00,
2013-03-27 18:06:00,44.6,27.2,30.11,NW,318,5.3,5.8,50,0.00,,,0.00,WUHU216HW,2013-03-27 22:06:00,
2013-03-27 18:11:00,44.6,27.2,30.11,WNW,292,5.1,5.8,50,0.00,,,0.00,WUHU216HW,2013-03-27 22:11:00,
2013-03-27 18:17:00,44.6,27.2,30.11,WNW,290,3.7,5.6,50,0.00,,,0.00,WUHU216HW,2013-03-27 22:17:00,
2013-03-27 18:22:00,44.5,26.5,30.11,NW,320,3.6,4.3,49,0.00,,,0.00,WUHU216HW,2013-03-27 22:22:00,
2013-03-27 18:27:00,44.3,26.8,30.11,WNW,296,4.7,8.9,50,0.00,,,0.00,WUHU216HW,2013-03-27 22:27:00,
2013-03-27 18:32:00,44.5,27.0,30.11,WNW,282,6.7,7.6,50,0.00,,,0.00,WUHU216HW,2013-03-27 22:32:00,
2013-03-27 18:37:00,44.3,26.8,30.11,WNW,298,5.0,7.6,50,0.00,,,0.00,WUHU216HW,2013-03-27 22:37:00,
2013-03-27 18:42:00,43.9,26.6,30.11,WNW,294,4.5,5.6,50,0.00,,,0.00,WUHU216HW,2013-03-27 22:42:00,
2013-03-27 18:48:00,43.9,27.0,30.11,NNW,340,3.8,5.4,51,0.00,,,0.00,WUHU216HW,2013-03-27 22:48:00,
2013-03-27 18:53:00,43.7,26.8,30.11,WNW,295,4.1,6.0,51,0.00,,,0.00,WUHU216HW,2013-03-27 22:53:00,
2013-03-27 18:58:00,43.6,26.6,30.11,NNW,328,5.4,6.3,51,0.00,,,0.00,WUHU216HW,2013-03-27 22:58:00,
2013-03-27 19:03:00,43.2,26.3,30.12,NW,323,2.8,4.7,51,0.00,,,0.00,WUHU216HW,2013-03-27 23:03:00,
2013-03-27 19:08:00,43.2,26.7,30.11,NNW,329,4.1,5.4,52,0.00,,,0.00,WUHU216HW,2013-03-27 23:08:00,
2013-03-27 19:13:00,43.0,26.6,30.12,NNW,345,4.3,6.0,52,0.00,,,0.00,WUHU216HW,2013-03-27 23:13:00,
2013-03-27 19:18:00,42.8,26.5,30.12,North,353,2.0,2.2,52,0.00,,,0.00,WUHU216HW,2013-03-27 23:18:00,
2013-03-27 19:23:00,42.8,26.5,30.12,NW,315,5.8,6.9,52,0.00,,,0.00,WUHU216HW,2013-03-27 23:23:00,
2013-03-27 19:29:00,42.5,26.6,30.12,North,355,1.6,2.0,53,0.00,,,0.00,WUHU216HW,2013-03-27 23:29:00,
2013-03-27 19:34:00,42.1,25.8,30.12,West,279,4.3,6.7,52,0.00,,,0.00,WUHU216HW,2013-03-27 23:34:00,
2013-03-27 19:39:00,41.9,25.6,30.12,West,280,4.7,5.4,52,0.00,,,0.00,WUHU216HW,2013-03-27 23:39:00,
2013-03-27 19:44:00,41.6,25.7,30.12,West,274,3.4,5.4,53,0.00,,,0.00,WUHU216HW,2013-03-27 23:44:00,
2013-03-27 19:49:00,41.2,25.3,30.12,WNW,285,4.4,6.0,53,0.00,,,0.00,WUHU216HW,2013-03-27 23:49:00,
2013-03-27 19:54:00,40.9,24.9,30.12,NNW,348,3.1,4.7,53,0.00,,,0.00,WUHU216HW,2013-03-27 23:54:00,
2013-03-27 19:59:00,40.7,25.2,30.12,WNW,285,2.7,4.9,54,0.00,,,0.00,WUHU216HW,2013-03-27 23:59:00,
2013-03-27 20:04:00,40.5,25.0,30.12,NNW,335,4.8,5.8,54,0.00,,,0.00,WUHU216HW,2013-03-28 00:04:00,
2013-03-27 20:09:00,40.3,25.3,30.12,WNW,287,3.3,4.0,55,0.00,,,0.00,WUHU216HW,2013-03-28 00:09:00,
2013-03-27 20:14:00,40.0,25.0,30.12,NW,306,4.9,6.5,55,0.00,,,0.00,WUHU216HW,2013-03-28 00:14:00,
2013-03-27 20:19:00,39.8,24.9,30.12,NW,314,2.9,3.1,55,0.00,,,0.00,WUHU216HW,2013-03-28 00:19:00,
2013-03-27 20:24:00,39.8,25.3,30.12,NW,311,5.5,8.1,56,0.00,,,0.00,WUHU216HW,2013-03-28 00:24:00,
2013-03-27 20:30:00,39.6,25.1,30.13,WNW,290,3.9,4.7,56,0.00,,,0.00,WUHU216HW,2013-03-28 00:30:00,
2013-03-27 20:35:00,39.2,24.8,30.13,NW,313,2.6,3.1,56,0.00,,,0.00,WUHU216HW,2013-03-28 00:35:00,
2013-03-27 20:40:00,38.9,24.8,30.13,NW,320,3.0,4.0,57,0.00,,,0.00,WUHU216HW,2013-03-28 00:40:00,
2013-03-27 20:45:00,38.7,24.7,30.13,NW,320,3.1,5.1,57,0.00,,,0.00,WUHU216HW,2013-03-28 00:45:00,
2013-03-27 20:51:00,38.7,24.7,30.13,NW,326,3.4,5.4,57,0.00,,,0.00,WUHU216HW,2013-03-28 00:51:00,
2013-03-27 20:56:00,38.3,24.4,30.13,NW,325,3.9,5.8,57,0.00,,,0.00,WUHU216HW,2013-03-28 00:56:00,
2013-03-27 21:01:00,38.2,24.7,30.13,NW,304,3.4,4.0,58,0.00,,,0.00,WUHU216HW,2013-03-28 01:01:00,
2013-03-27 21:06:00,38.2,24.7,30.14,WNW,303,3.5,4.0,58,0.00,,,0.00,WUHU216HW,2013-03-28 01:06:00,
2013-03-27 21:11:00,38.0,24.5,30.14,WNW,285,5.2,6.9,58,0.00,,,0.00,WUHU216HW,2013-03-28 01:11:00,
2013-03-27 21:16:00,37.6,24.1,30.14,WNW,296,4.1,4.9,58,0.00,,,0.00,WUHU216HW,2013-03-28 01:16:00,
2013-03-27 21:21:00,37.4,24.4,30.15,NW,324,4.3,5.4,59,0.00,,,0.00,WUHU216HW,2013-03-28 01:21:00,
2013-03-27 21:26:00,37.4,24.8,30.15,WNW,291,2.0,4.0,60,0.00,,,0.00,WUHU216HW,2013-03-28 01:26:00,
2013-03-27 21:31:00,37.3,24.7,30.15,WNW,299,2.0,2.7,60,0.00,,,0.00,WUHU216HW,2013-03-28 01:31:00,
2013-03-27 21:37:00,37.1,24.5,30.15,West,279,4.1,6.5,60,0.00,,,0.00,WUHU216HW,2013-03-28 01:37:00,
2013-03-27 21:42:00,37.1,24.5,30.15,NW,313,4.2,4.5,60,0.00,,,0.00,WUHU216HW,2013-03-28 01:42:00,
2013-03-27 21:47:00,36.9,24.4,30.15,NNW,339,3.0,3.6,60,0.00,,,0.00,WUHU216HW,2013-03-28 01:47:00,
2013-03-27 21:52:00,36.7,24.2,30.15,NW,310,4.2,5.8,60,0.00,,,0.00,WUHU216HW,2013-03-28 01:52:00,
2013-03-27 21:57:00,36.4,23.9,30.15,WNW,299,2.4,3.4,60,0.00,,,0.00,WUHU216HW,2013-03-28 01:57:00,
2013-03-27 22:02:00,36.4,23.9,30.15,NNW,330,2.1,2.7,60,0.00,,,0.00,WUHU216HW,2013-03-28 02:02:00,
2013-03-27 22:08:00,36.4,23.9,30.16,West,278,1.4,2.2,60,0.00,,,0.00,WUHU216HW,2013-03-28 02:08:00,
2013-03-27 22:13:00,36.2,23.7,30.16,West,264,5.1,5.4,60,0.00,,,0.00,WUHU216HW,2013-03-28 02:13:00,
2013-03-27 22:18:00,36.2,24.0,30.16,NNW,337,2.0,2.5,61,0.00,,,0.00,WUHU216HW,2013-03-28 02:18:00,
2013-03-27 22:23:00,36.2,24.0,30.16,NNW,329,2.6,3.8,61,0.00,,,0.00,WUHU216HW,2013-03-28 02:23:00,
2013-03-27 22:28:00,36.2,24.0,30.16,West,281,2.8,6.3,61,0.00,,,0.00,WUHU216HW,2013-03-28 02:28:00,
2013-03-27 22:33:00,36.4,24.2,30.16,NW,307,3.2,4.5,61,0.00,,,0.00,WUHU216HW,2013-03-28 02:33:00,
2013-03-27 22:38:00,36.4,24.2,30.16,NNW,327,3.2,4.9,61,0.00,,,0.00,WUHU216HW,2013-03-28 02:38:00,
2013-03-27 22:43:00,36.2,24.0,30.16,WNW,302,4.2,6.3,61,0.00,,,0.00,WUHU216HW,2013-03-28 02:43:00,
2013-03-27 22:48:00,36.0,24.0,30.16,West,270,4.0,4.7,61,0.00,,,0.00,WUHU216HW,2013-03-28 02:48:00,
2013-03-27 22:53:00,35.8,23.8,30.16,NW,307,3.5,4.9,61,0.00,,,0.00,WUHU216HW,2013-03-28 02:53:00,
2013-03-27 22:58:00,35.6,23.9,30.16,NW,307,2.4,4.7,62,0.00,,,0.00,WUHU216HW,2013-03-28 02:58:00,
2013-03-27 23:04:00,35.5,23.8,30.16,NNW,331,2.3,4.0,62,0.00,,,0.00,WUHU216HW,2013-03-28 03:04:00,
2013-03-27 23:09:00,35.3,23.6,30.16,North,354,1.6,2.2,62,0.00,,,0.00,WUHU216HW,2013-03-28 03:09:00,
2013-03-27 23:14:00,34.9,23.2,30.16,NW,321,4.1,5.1,62,0.00,,,0.00,WUHU216HW,2013-03-28 03:14:00,
2013-03-27 23:19:00,34.9,23.2,30.16,NW,309,2.3,2.9,62,0.00,,,0.00,WUHU216HW,2013-03-28 03:19:00,
2013-03-27 23:24:00,34.7,23.4,30.17,West,274,2.2,4.0,63,0.00,,,0.00,WUHU216HW,2013-03-28 03:24:00,
2013-03-27 23:29:00,34.6,23.2,30.17,WNW,288,2.0,3.1,63,0.00,,,0.00,WUHU216HW,2013-03-28 03:29:00,
2013-03-27 23:34:00,34.6,23.2,30.17,NNW,344,1.1,1.6,63,0.00,,,0.00,WUHU216HW,2013-03-28 03:34:00,
2013-03-27 23:39:00,34.6,23.2,30.17,WNW,288,2.1,4.5,63,0.00,,,0.00,WUHU216HW,2013-03-28 03:39:00,
2013-03-27 23:44:00,34.2,22.9,30.17,WNW,302,3.1,3.8,63,0.00,,,0.00,WUHU216HW,2013-03-28 03:44:00,
2013-03-27 23:49:00,34.2,23.2,30.17,WNW,294,3.3,4.0,64,0.00,,,0.00,WUHU216HW,2013-03-28 03:49:00,
2013-03-27 23:55:00,34.0,23.0,30.17,WNW,297,2.2,3.6,64,0.00,,,0.00,WUHU216HW,2013-03-28 03:55:00,